[[{"header":{"parameterUnit":"m.s-1","parameterCategory":1,"la1":30.2991,"la2":30.254,"lo1":-89.0895,"lo2":-89.0444,"dy":0.0017,"dx":0.0017,"nx":28,"ny":28,"refTime":"2024-09-26T09:00:00:Z","depth":0,"parameterNumber":2,"parameterNumberName":"U-component_of_WINDS"},"data":[0,0,0,0,0,0,0,0,0,0,0,0,0,0,0,0,0,0,0,0,0,0,0,0,0,0,0,0,0,0,0,0,0,0,0,0,0,0,0,0,0,0,0,0,0,0,0,0,0,0,0,0,0,0,0,0,0,0,6.1304,6.1306,0,6.1535,6.1538,6.154,6.149,6.1485,6.1481,6.1477,6.1714,6.1724,6.1734,0,0,0,0,0,0,0,0,0,0,0,0,0,6.0815,6.0824,6.1304,6.1306,6.1309,6.1535,6.1538,6.1541,6.1491,6.1485,6.148,6.1475,6.1711,6.1723,6.1735,0,0,0,0,0,0,0,0,0,0,0,0,0,6.1035,6.0827,6.1303,6.1311,6.1314,6.1534,6.1538,6.1542,6.1492,6.1485,6.1479,6.1473,6.1707,6.1722,6.1737,6.1963,0,0,6.1784,6.1791,0,0,0,0,0,0,0,0,6.1022,6.1053,6.1307,6.1311,6.1315,6.1477,6.1452,6.1683,6.1493,6.1424,6.1477,6.1469,6.164,6.1661,6.1719,6.1974,6.1984,6.1786,6.1795,6.1802,6.1806,0,0,0,0,0,0,0,6.1007,6.1042,6.1395,6.1311,6.1316,6.1302,6.1326,6.1496,6.1566,6.143,6.1427,6.1455,6.1641,6.1704,6.1724,6.1988,6.1785,6.1799,6.1809,6.1815,6.2435,6.2441,0,0,0,0,0,0,6.0989,6.103,6.1388,6.1402,6.115,6.1316,6.1343,6.1432,6.1564,6.1578,6.146,6.1452,6.168,6.1706,6.1732,6.2001,6.1802,6.1816,6.1825,6.2428,6.2436,6.2444,0,0,0,0,0,0,6.0978,6.1021,6.1378,6.1215,6.126,6.1332,6.1431,6.144,6.1502,6.1587,6.1599,6.1511,6.1676,6.171,6.1905,6.2009,6.1823,6.1837,6.2419,6.243,6.244,6.2544,0,0,0,0,0,0,6.0965,6.1018,6.1105,6.1218,6.1269,6.1549,6.1438,6.1449,6.1529,6.152,6.1638,6.1651,6.1674,6.1882,6.192,6.2027,6.185,6.241,6.2424,6.2437,6.2531,6.2556,6.2578,0,0,0,0,0,6.0947,6.1126,6.111,6.1153,6.138,6.1555,6.1584,6.1606,6.1538,6.1625,6.1679,6.1648,6.1992,6.1902,6.1945,6.2058,6.2403,6.242,6.2436,6.252,6.2551,6.2578,0,0,0,0,0,0,6.1025,6.1141,6.1124,6.1346,6.144,6.1546,6.1657,6.1639,6.1755,6.1742,6.1764,6.1792,6.1989,6.2043,6.1941,6.2281,6.2188,6.2213,6.2237,6.2268,6.2291,6.2272,6.1862,0,0,0,0,0,6.1068,6.1201,6.1295,6.1481,6.1529,6.1585,6.1662,6.1671,6.177,6.181,6.1878,6.1976,6.2105,6.219,6.2314,6.254,6.2562,6.2638,6.2661,6.268,6.2701,6.2819,6.2852,6.2497,6.2497,6.2496,0,0,6.1158,6.1238,6.1321,6.1498,6.1573,6.1708,6.1619,6.1768,6.1867,6.1833,6.2019,6.2073,6.2182,6.2392,6.2488,6.2443,6.2804,6.2701,6.2715,6.2726,6.2839,6.2872,6.2902,6.2508,6.2506,6.2504,0,0,6.139,6.1466,6.1626,6.1702,6.1815,6.1851,6.1889,6.1998,6.2031,6.2219,6.2194,6.2313,6.2537,6.2614,6.2683,6.2941,6.2915,6.2981,6.3103,6.3218,6.3246,6.327,6.3358,6.339,6.3002,6.3002,6.3003,0,6.1487,6.169,6.1711,6.186,6.1937,6.1911,6.2072,6.2145,6.2294,6.2347,6.2296,6.2573,6.2645,6.287,6.2932,6.2991,6.3032,6.2966,6.324,6.3265,6.3289,6.3372,6.3406,6.3009,6.3009,6.3008,6.3007,0,6.1802,6.1943,6.2059,6.2201,6.2292,6.2447,6.2489,6.2578,6.2578,6.2619,6.2807,6.2893,6.3032,6.3087,6.309,6.3311,6.3279,6.3235,6.3141,6.3329,6.3408,6.344,6.3019,6.3017,6.3015,6.3013,0,0,6.2089,6.2238,6.228,6.2342,6.2464,6.2573,6.2726,6.2861,6.2934,6.3038,6.3163,6.3352,6.3309,6.3387,6.3399,6.35,6.3692,6.3442,6.3444,6.3481,6.3936,6.3966,6.4003,6.3677,6.3683,6.3688,6.3925,0,6.2328,6.2596,6.2618,6.2858,6.2986,6.2962,6.3094,6.3182,6.3224,6.3337,6.3383,6.3514,6.3451,6.3497,6.3597,6.3648,6.3783,6.3632,6.3791,6.3796,6.376,6.4045,6.4079,6.4298,6.3957,6.3962,6.3966,0,6.2644,6.2753,6.3006,6.3106,6.3161,6.3279,6.3402,6.3513,6.3611,6.3633,6.3719,6.3715,6.3869,6.3771,6.3981,6.3878,6.3944,6.3979,6.3988,6.4001,6.389,6.4061,6.437,6.4401,6.4016,6.4012,6.4008,0,6.2822,6.3034,6.3211,6.3266,6.3388,6.3471,6.3525,6.3617,6.3696,6.3803,6.3853,6.3979,6.4046,6.4142,6.417,6.4098,6.4378,6.4284,6.4398,6.4397,6.4456,6.4451,6.4774,6.4506,6.4506,6.4505,6.4504,0,6.3085,6.3239,6.3292,6.34,6.3571,6.3594,6.3763,6.3813,6.3894,6.401,6.3999,6.4108,6.4141,6.4256,6.428,6.4447,6.4479,6.4499,6.4503,6.4498,6.4495,6.4539,6.4523,6.4514,6.4512,6.451,6.4508,0,6.3311,6.3354,6.3544,6.3644,6.3672,6.3793,6.3877,6.3981,6.4019,6.4166,6.4202,6.4263,6.4396,6.4435,6.4597,6.4613,6.4808,6.48,6.4774,6.4773,6.4883,6.487,6.5243,6.5291,6.4995,6.4997,6.5,0,6.3474,6.3592,6.3703,6.378,6.3837,6.3962,6.4041,6.4067,6.415,6.4268,6.4357,6.4489,6.4595,6.481,6.4867,6.4989,6.4981,6.5104,6.5,6.4989,6.4978,6.4968,6.4978,6.5122,6.5125,6.5128,6.513,0,6.3758,6.3772,6.3886,6.4007,6.4101,6.4198,6.4291,6.4355,6.4394,6.4487,6.4623,6.4706,6.4869,6.4998,6.5122,6.5176,6.5159,6.5162,6.5194,6.5188,6.5166,6.5175,6.4823,6.5153,6.5151,6.5149,6.5148,6.5147,6.3955,6.4056,6.4149,6.4275,6.4348,6.4434,6.4534,6.4585,6.4698,6.4832,6.4842,6.4988,6.5079,6.5243,6.5304,6.5417,6.5381,6.5429,6.544,6.545,6.5456,6.5152,6.544,6.544,6.5439,6.5439,6.5438,0,6.4233,6.4291,6.4407,6.4536,6.4635,6.461,6.4711,6.4795,6.4923,6.501,6.5115,6.5268,6.5393,6.546,6.5584,6.5661,6.5656,6.5692,6.5685,6.5697,6.5484,6.5442,6.5694,6.5694,6.5694,6.5694,6.5694,6.5694,6.4389,6.4558,6.4582,6.4786,6.4842,6.4985,6.5044,6.5122,6.5191,6.5363,6.5466,6.5509,6.5587,6.5715,6.5827,6.5844,6.5888,6.5928,6.5939,6.5739,6.5712,6.5687,6.5647,6.5938,6.5939,6.6141,6.6143,6.6144]},{"header":{"parameterUnit":"m.s-1","parameterCategory":1,"la1":30.2991,"la2":30.254,"lo1":-89.0895,"lo2":-89.0444,"dy":0.0017,"dx":0.0017,"nx":28,"ny":28,"refTime":"2024-09-26T09:00:00:Z","depth":0,"parameterNumber":3,"parameterNumberName":"V-component_of_WINDS"},"data":[0,0,0,0,0,0,0,0,0,0,0,0,0,0,0,0,0,0,0,0,0,0,0,0,0,0,0,0,0,0,0,0,0,0,0,0,0,0,0,0,0,0,0,0,0,0,0,0,0,0,0,0,0,0,0,0,0,0,3.8781,3.8782,0,3.8855,3.8856,3.8857,3.8806,3.8804,3.8801,3.8799,3.8872,3.8876,3.888,0,0,0,0,0,0,0,0,0,0,0,0,0,3.8591,3.8594,3.8781,3.8782,3.8783,3.8855,3.8856,3.8857,3.8806,3.8804,3.8801,3.8798,3.8871,3.8876,3.888,0,0,0,0,0,0,0,0,0,0,0,0,0,3.867,3.8596,3.8781,3.8766,3.8766,3.8855,3.8856,3.8857,3.8807,3.8803,3.88,3.8797,3.8869,3.8875,3.8881,3.8988,0,0,3.89,3.8902,0,0,0,0,0,0,0,0,3.8665,3.8677,3.8767,3.8767,3.8767,3.8818,3.8816,3.8901,3.8808,3.8791,3.8799,3.8795,3.8857,3.8864,3.8885,3.8991,3.8994,3.89,3.8904,3.8907,3.8908,0,0,0,0,0,0,0,3.866,3.8673,3.881,3.8769,3.8769,3.8754,3.8762,3.8831,3.8842,3.8792,3.8789,3.8799,3.8856,3.8879,3.8886,3.8995,3.89,3.8906,3.8909,3.8912,3.9189,3.9193,0,0,0,0,0,0,3.8656,3.8669,3.8808,3.8812,3.8707,3.8761,3.8769,3.8805,3.8841,3.8844,3.8801,3.8796,3.887,3.8879,3.8889,3.9014,3.8907,3.8912,3.8916,3.9185,3.919,3.9194,0,0,0,0,0,0,3.8652,3.8669,3.8805,3.874,3.8756,3.8768,3.8808,3.8808,3.8832,3.8848,3.8849,3.8824,3.8868,3.888,3.8963,3.9016,3.8915,3.8921,3.9181,3.9187,3.9192,3.9266,0,0,0,0,0,0,3.8647,3.8668,3.871,3.8741,3.876,3.888,3.8812,3.8812,3.8843,3.8836,3.8869,3.8871,3.8866,3.8954,3.8969,3.9022,3.8925,3.9176,3.9184,3.919,3.9259,3.9274,3.9286,0,0,0,0,0,3.8641,3.8728,3.8712,3.8729,3.8813,3.8883,3.8893,3.8886,3.8847,3.8888,3.8898,3.887,3.9008,3.8963,3.8979,3.9035,3.9173,3.9182,3.919,3.9253,3.9271,3.9286,0,0,0,0,0,0,3.8702,3.8732,3.8715,3.8815,3.8847,3.8874,3.8926,3.8906,3.8948,3.8941,3.8929,3.8937,3.9023,3.9037,3.8987,3.9139,3.9084,3.9096,3.9126,3.9143,3.9157,3.9151,3.893,0,0,0,0,0,3.8728,3.8784,3.8806,3.8892,3.8909,3.8915,3.8945,3.8937,3.8969,3.8982,3.8998,3.9029,3.9079,3.9112,3.9159,3.9261,3.9266,3.9307,3.932,3.9331,3.9342,3.9394,3.9412,3.9221,3.9221,3.9221,0,0,3.878,3.8803,3.8839,3.8905,3.8929,3.8985,3.8927,3.8989,3.903,3.8991,3.907,3.9083,3.9116,3.9209,3.925,3.9223,3.9395,3.9342,3.9351,3.9355,3.9405,3.9423,3.9439,3.9227,3.9226,3.9225,0,0,3.8905,3.8929,3.9003,3.9027,3.9064,3.9067,3.9084,3.9114,3.9121,3.9201,3.9172,3.922,3.9306,3.9331,3.9354,3.9486,3.9461,3.9501,3.9572,3.9623,3.9638,3.9651,3.9696,3.9713,3.9512,3.9512,3.9512,0,3.8966,3.9051,3.9043,3.9107,3.9136,3.9103,3.9176,3.92,3.9249,3.9269,3.9238,3.9345,3.9365,3.9462,3.9494,3.9515,3.9532,3.9498,3.9637,3.965,3.9662,3.9705,3.9722,3.9516,3.9516,3.9515,3.9515,0,3.9123,3.9182,3.9237,3.9286,3.9321,3.9389,3.9389,3.9425,3.9413,3.9419,3.9498,3.9522,3.9571,3.9594,3.9583,3.9688,3.967,3.9638,3.9583,3.9685,3.9725,3.9741,3.9523,3.9521,3.952,3.9519,0,0,3.929,3.9332,3.9352,3.9373,3.941,3.9454,3.952,3.9569,3.9599,3.9634,3.9687,3.9761,3.9731,3.9758,3.9749,3.9794,3.9894,3.9757,3.9757,3.978,4.0009,4.0032,4.0051,3.9878,3.9881,3.9884,4.0005,0,3.9415,3.9531,3.9524,3.9633,3.9686,3.9654,3.9711,3.9739,3.9745,3.979,3.9796,3.9848,3.9806,3.9821,3.9865,3.9873,3.994,3.9864,3.9926,3.9928,3.9918,4.0072,4.0097,4.0211,4.0021,4.0024,4.0026,0,3.9578,3.9618,3.9732,3.9758,3.978,3.9832,3.9875,3.9919,3.9949,3.995,3.9979,3.9962,4.0026,3.997,4.0056,4.0005,4.003,4.0037,4.0041,4.0046,3.9983,4.008,4.0248,4.0264,4.0051,4.0049,4.0047,0,3.9686,3.9768,3.9846,3.9865,3.9899,3.9935,3.9951,3.9977,4.0006,4.0044,4.0062,4.0107,4.0131,4.0164,4.0159,4.0118,4.0246,4.019,4.0248,4.0248,4.0276,4.0274,4.0448,4.0294,4.0293,4.0293,4.0293,0,3.9826,3.9896,3.9895,3.9943,4.002,4.001,4.0086,4.0097,4.0121,4.0168,4.0144,4.0189,4.018,4.0224,4.022,4.0291,4.0303,4.0304,4.0302,4.0306,4.0306,4.0321,4.0313,4.0298,4.0297,4.0296,4.0295,0,3.996,3.9962,4.0045,4.0069,4.0077,4.0133,4.0153,4.0197,4.0201,4.0261,4.0275,4.0281,4.0332,4.033,4.0387,4.0384,4.0471,4.0461,4.0462,4.0459,4.0516,4.051,4.0706,4.073,4.0561,4.0563,4.0564,0,4.0049,4.0102,4.0132,4.0163,4.0181,4.0231,4.026,4.0252,4.0284,4.032,4.0359,4.0408,4.0446,4.0529,4.0537,4.058,4.0569,4.0635,4.0575,4.0577,4.0568,4.0564,4.0569,4.0646,4.0648,4.065,4.0651,0,4.0206,4.0204,4.0248,4.0293,4.0329,4.0363,4.0394,4.042,4.0415,4.0451,4.0503,4.0533,4.0591,4.0639,4.068,4.0694,4.0671,4.067,4.0685,4.0689,4.0686,4.0686,4.0492,4.0665,4.0664,4.0662,4.0662,4.0661,4.0319,4.0364,4.0392,4.0441,4.0464,4.0493,4.0535,4.0544,4.0588,4.0635,4.0627,4.0684,4.071,4.0763,4.078,4.0824,4.08,4.0823,4.0828,4.0834,4.0839,4.068,4.0831,4.0831,4.083,4.083,4.083,0,4.0473,4.0489,4.0535,4.0579,4.0617,4.0594,4.0626,4.0659,4.0711,4.0737,4.0775,4.0833,4.0879,4.089,4.0933,4.0966,4.0956,4.0977,4.0974,4.0977,4.0859,4.0841,4.0984,4.0984,4.0984,4.0984,4.0984,4.0984,4.0558,4.0632,4.0633,4.0717,4.0732,4.0789,4.0809,4.0835,4.0856,4.0922,4.096,4.0968,4.0987,4.1031,4.1071,4.1073,4.1089,4.1114,4.1112,4.1001,4.0986,4.0971,4.0954,4.1118,4.1119,4.1226,4.1227,4.1228]}]]